Regional Weather Roundup
Issued by NWS Memphis, TN

Home | Current Version | Previous Version | Text Only | Print | Product List | Glossary On
Versions: 1 2 3 4 5 6 7 8 9 10 11 12 13 14 15 16 17 18 19 20 21 22 23 24 25 26 27 28 29 30 31 32 33 34 35 36 37 38 39 40 41 42 43 44 45 46 47 48 49 50
000
ASUS44 KMEG 290210
RWRMEG
MEMPHIS CWA HOURLY WEATHER ROUNDUP
NATIONAL WEATHER SERVICE MEMPHIS TN
900 PM CDT THU MAY 28 2015

...WEST TENNESSEE...

CITY           SKY/WX    TMP DP  RH WIND       PRES   REMARKS
MEMPHIS INTL   PTCLDY    78  64  61 SE7       30.07R
NWS MEMPHIS      N/A     75 N/A N/A MISG        N/A
JACKSON        CLEAR     72  66  81 CALM      30.09S
LEXINGTON      CLEAR     72  68  88 CALM      30.11R
DYERSBURG      CLEAR     73  55  53 SE5       30.09R
PARIS          PTCLDY    70  66  88 CALM      30.11R


...EASTERN ARKANSAS...

CITY           SKY/WX    TMP DP  RH WIND       PRES   REMARKS
JONESBORO      CLOUDY    74  69  85 SE5       30.04R
WEST MEMPHIS   PTCLDY    73  69  87 S7        30.04S
BATESVILLE     CLOUDY    70  66  88 CALM      30.04R
NEWPORT        MOCLDY    74  70  87 SE7       30.04S
WALNUT RIDGE   CLOUDY    75  68  78 SE7       30.03S
BLYTHEVILLE    CLEAR     74  70  87 SE7       30.06S
SEARCY         MOCLDY    68  67  96 CALM      30.05R
STUTTGART      MOCLDY    72  66  83 MISG      30.05R
PINE BLUFF     MOCLDY    70  67  90 E3        30.04S
MONTICELLO     MOCLDY    71  70  96 E3        30.05S


...NORTH MISSISSIPPI...

CITY           SKY/WX    TMP DP  RH WIND       PRES   REMARKS
TUPELO         PTCLDY    75  66  73 SE5       30.10R
OXFORD         PTCLDY    68  66  94 E5        30.11R
OLIVE BRANCH   CLEAR     73  72  94 SE6       30.08S
TUNICA         CLEAR     73  68  83 SE7       30.06R
CLARKSDALE       N/A     73  73 100 MISG      30.06S
CORINTH        PTCLDY    72  68  88 CALM      30.10R
GREENWOOD      CLEAR     76  67  73 E6        30.06S
COLUMBUS       PTCLDY    71  71 100 CALM      30.10R
STARKVILLE     MOCLDY    73  68  83 E3        30.10S
GOLDEN TRIANGL CLOUDY    75  68  78 CALM      30.10R


...SOUTHEAST MISSOURI...

CITY           SKY/WX    TMP DP  RH WIND       PRES   REMARKS
WEST PLAINS    CLOUDY    72  65  78 S9        30.04R
POPLAR BLUFF   MOCLDY    73  66  78 SE5       30.04S
CAPE GIRARDEAU CLEAR     72  66  81 S3        30.07R


...NORTHWEST ALABAMA...

CITY           SKY/WX    TMP DP  RH WIND       PRES   REMARKS
MUSCLE SHOALS  CLOUDY    71  65  81 SE7       30.14R


...MIDDLE TENNESSEE...

CITY           SKY/WX    TMP DP  RH WIND       PRES   REMARKS
NASHVILLE      MOCLDY    76  67  73 CALM      30.13R
CLARKSVILLE    CLEAR     73  65  75 SE3       30.11R
COLUMBIA       MOCLDY    72  70  94 SE6       30.12S


...WESTERN KENTUCKY...

CITY           SKY/WX    TMP DP  RH WIND       PRES   REMARKS
PADUCAH        CLOUDY    75  68  78 E3        30.08R
FORT CAMPBELL  PTCLDY    76  66  71 E3        30.11R


...CENTRAL ARKANSAS...

CITY           SKY/WX    TMP DP  RH WIND       PRES   REMARKS
LITTLE ROCK    MOCLDY    70  66  87 S3        30.03S


SKY/WX REPORTED AS FAIR MEANS FEW OR NO CLOUDS BELOW
12 THOUSAND FEET.



USA.gov is the U.S. government's official web portal to all federal, state and local government web resources and services.